Location: Unspecified
(0.0000°N, 0.0000°E)
Time: 15:41:38
(UTC+00:00)

Explorer 11/Cluster Stage 4 - Pass Details

Date: 25 February 2024
Orbit: 465 x 1219 km, 28.8° (Epoch: 24 April)

Event Time Altitude Azimuth Distance (km) Brightness Sun altitude
Rises 19:17:55 0° 222° (SW) 3,365 10.7 -16.0°
Reaches altitude 10° 19:20:30 10° 212° (SSW) 2,551 9.8 -16.6°
Maximum altitude 19:26:10 35° 148° (SSE) 1,573 7.9 -18.0°
Enters shadow 19:29:07 26° 106° (ESE) 1,982 8.1 -18.8°
